Regional Weather Roundup
Issued by NWS Grand Forks, ND

Home | Current Version | Previous Version | Text Only | Print | Product List | Glossary On
Versions: 1 2 3 4 5 6 7 8 9 10 11 12 13 14 15 16 17 18 19 20 21 22 23 24 25 26 27 28 29 30 31 32 33 34 35 36 37 38 39 40 41 42 43 44 45 46 47 48 49 50
000
ASUS43 KFGF 212131
RWRFGF
PRAIRIE TO PINES  WEATHER ROUNDUP
NATIONAL WEATHER SERVICE EASTERN NORTH DAKOTA/GRAND FORKS ND
400 PM CDT TUE OCT 21 2014

 **SATELLITE DATA USED TO AUGMENT SKY COVER AT AUTOMATED STATIONS**
 *****  WEATHER ACROSS EASTERN NORTH DAKOTA  *****

CITY           SKY/WX    TMP DP  RH WIND       PRES   REMARKS
GRAND FORKS    SUNNY     65  42  43 SE26G38   29.86F
GRAND FRKS AFB SUNNY     67  42  40 SE28G36   29.85F
GRAND FRKS NWS   N/A     63 N/A N/A SE26        N/A
DEVILS LAKE    SUNNY     66  43  42 SE23G30   29.74F
FARGO          SUNNY     67  41  38 SE22G38   29.89F
WAHPETON ARPT  CLEAR     66  36  32 SE22G33   29.94S
$$

 ***** WEATHER ACROSS CENTRAL AND WESTERN NORTH DAKOTA  *****

CITY           SKY/WX    TMP DP  RH WIND       PRES   REMARKS
BISMARCK       MOSUNNY   81  46  29 S14G26    29.68S
MINOT          SUNNY     72  42  34 SE16      29.65F
JAMESTOWN      SUNNY     75  43  31 S20G30    29.78F
MINOT AFB      SUNNY     71  44  37 SE16      29.64F
GARRISON         N/A     73  45  36 S8        29.65F
WILLISTON      SUNNY     75  42  30 SE10      29.59F
DICKINSON      SUNNY     78  45  30 S20       29.62F
HETTINGER      SUNNY     81  43  26 S18       29.66F
$$

 *****  OTHER AIRPORT OBSERVATIONS IN OUR AREA  *****

CITY           SKY/WX    TMP DP  RH WIND       PRES   REMARKS
WALHALLA         N/A     63  43  48 SE26G35   29.80F
GRAFTON AIRPOR FAIR      64  41  42 SE30G36   29.84F
VALLEY CITY AR FAIR      68  45  42 SE22G31   29.83S
CANDO          FAIR      66  43  42 SE20      29.75F
CAVALIER APRT  FAIR      64  41  42 SE18G32   29.82F
GWINNER        CLEAR     72  45  37 SE23      29.87S
SHEYENNE NWR     N/A     70  42  36 SE22      29.95S
ROLLA          FAIR      64  41  42 S25G35    29.74F
 ***** THE ABOVE OBSERVATIONS ARE NON NWS ARE NOT QUALITY
       CONTROLLED AND MAY MIS-REPORT RAIN FOR SNOW...
$$

  *****  WEATHER ACROSS NORTHERN MINNESOTA  *****

CITY           SKY/WX    TMP DP  RH WIND       PRES   REMARKS
FLAG ISLAND    SUNNY     52  41  66 SE18      29.99F
WARROAD        SUNNY     57  43  58 SE17      29.98F
ROSEAU         SUNNY     59  43  55 SE16      29.96F
HALLOCK        SUNNY     64  39  39 SE24G35   29.86F
THF RVR FALLS  SUNNY     63  39  42 SE22      29.93F
BAUDETTE       SUNNY     55  37  50 SE16G24   30.02F
WASKISH        SUNNY     55  39  54 SE16G22   30.03F
CROOKSTON      SUNNY     64  41  42 S25G32    29.91S
STEPHEN NDAWN    N/A     64  41  42 SE22        N/A
GREENBUSH NDAW   N/A     63  41  45 SE17        N/A
$$
  *****  WEATHER ACROSS CENTRAL AND WEST MINNESOTA  *****

CITY           SKY/WX    TMP DP  RH WIND       PRES   REMARKS
FOSSTON        SUNNY     63  37  39 SE15G22   29.96F
BEMIDJI        SUNNY     55  39  54 SE18G25   30.03S
PARK RAPIDS    SUNNY     58  38  47 SE18      30.03F
ELBOW LAKE     FAIR      62  41  46 SE24G30   29.99S
WADENA         SUNNY     57  39  51 SE16G24   30.04S
DETROIT LAKES  SUNNY     59  41  51 SE21G30   29.98F
MOORHEAD       SUNNY     66  37  34 SE23G30   29.92S
FERGUS FALLS   SUNNY     63  37  39 SE25      29.98S
MORRIS MN      SUNNY     66  43  42 SE21G31   29.99R
STAPLES        SUNNY     55  37  50 SE12G18   30.06S
$$
  *****  WEATHER ELSEWHERE ACROSS MINNESOTA  *****

CITY           SKY/WX    TMP DP  RH WIND       PRES   REMARKS
DULUTH         MOSUNNY   46  35  65 E15G21    30.19F
INTRNTL FALLS  SUNNY     49  35  58 SE15G21   30.10F
ELY            CLOUDY    43  34  70 SE13      30.19F
CLOQUET        SUNNY     46  36  66 E8        30.17F
WHEATON        SUNNY     64  41  42 SE23G29   29.95F
BRAINERD       SUNNY     54  39  57 SE9       30.10F
HIBBING        SUNNY     49  34  56 SE15      30.16F
ALEXANDRIA     SUNNY     60  41  49 SE16G24   30.04F
SAINT CLOUD    SUNNY     60  39  45 E12       30.11F
MINNEAPOLIS    SUNNY     57  40  52 E13       30.15F
$$

  *****  WEATHER ACROSS SOUTH DAKOTA  *****

CITY           SKY/WX    TMP DP  RH WIND       PRES   REMARKS
SIOUX FALLS    SUNNY     73  45  36 S17       29.98S
BROOKINGS      NOT AVBL
WATERTOWN      SUNNY     74  43  32 S17       29.93F
HURON          SUNNY     81  40  23 S15G26    29.86F
SISSETON         N/A     71  42  35 S16G28    29.90F
ABERDEEN       SUNNY     79  44  28 S21G31    29.83F
MITCHELL       SUNNY     81  41  24 S16G30    29.90F
PIERRE         SUNNY     83  39  21 S25G36    29.76F
MOBRIDGE       SUNNY     85  43  22 S25G36    29.69F
RAPID CITY     SUNNY     81  43  26 S17G28    29.73F
$$

  *****  SOME WEATHER IN NEARBY STATES *****

CITY           SKY/WX    TMP DP  RH WIND       PRES   REMARKS
GLASGOW MT     SUNNY     75  46  35 SE8       29.55F
GREAT FALLS MT LGT RAIN  47  45  93 W13       29.77S
CHEYENNE WY    PTSUNNY   70  34  26 S12       29.96S
SCOTTSBLUFF NE MOSUNNY   73  46  38 SE13      29.86F
OMAHA NE       SUNNY     74  41  30 SE10      30.04F
DES MOINES IA  MOSUNNY   66  44  45 E12       30.11S
DAVENPORT IA   SUNNY     57  37  47 E7        30.17F
CHICAGO IL     CLOUDY    49  39  68 N14       30.19S
EAU CLAIRE WI  SUNNY     55  36  48 S9        30.19S
LA CROSSE WI   SUNNY     58  37  45 SE7       30.18F
$$

  *****  SOME NATIONAL WEATHER *****

CITY           SKY/WX    TMP DP  RH WIND       PRES   REMARKS
LA GUARDIA NY  PTSUNNY   65  53  65 E12G20    29.82F
RALEIGH NC     PTSUNNY   69  48  47 W5        29.84S
ATLANTA GA     MOSUNNY   75  49  39 NW14      29.96R
NEW ORLEANS LA SUNNY     79  52  38 E5        29.98F
OKLAHOMA CITY  MOSUNNY   82  56  40 SE13      30.03F
ALBUQUERQUE NM MOSUNNY   65  44  46 W5        30.08F
SALT LAKE CITY PTSUNNY   62  37  39 NW14      30.01R
LOS ANGELES CA MOSUNNY   72  61  68 W14       29.87F
BOISE ID       CLOUDY    57  39  51 NW6       30.04S
SEATTLE WA     CLOUDY    57  51  80 S8        29.93F
$$

*** WEATHER ACROSS MANITOBA...SASKATCHEWAN AND ONTARIO ***
                ***ONTARIO***

CITY           SKY/WX    TMP DP  RH WIND       PRES   REMARKS
GERALDTON      SUNNY     37  28  70 E7        30.29S
THUNDER BAY    MOSUNNY   43  34  70 SE8       30.28F
SIOUX LOOKOUT  MOSUNNY   45  34  65 S9        30.15F
TORONTO        LGT RAIN  46  43  87 N13G18    30.00R
BIG TROUT LK   SUNNY     45  36  70 S16G22    30.00F
PICKLE LAKE    SUNNY     46  30  53 S15G23    30.14F
DRYDEN         SUNNY     45  36  70 SE16      30.11F
KENORA         MOSUNNY   50  37  62 SE15G25   30.03
$$
                *** MANITOBA***

CITY           SKY/WX    TMP DP  RH WIND       PRES   REMARKS
BRANDON        MOSUNNY   68  43  40 SE18G24   29.71F
DAUPHIN        SUNNY     64  45  48 E15       29.67F
ISLAND LAKE    SUNNY     54  37  54 S15G24    29.85F
PILOT MOUND      N/A     64  39  39 SE28G37     N/A
THE PAS        MOSUNNY   64  43  45 SE12      29.57F
THOMPSON       MOSUNNY   59  45  58 S9G17     29.63F
WINNIPEG       SUNNY     63  41  45 SE25G36   29.84F
LYNN LAKE      SUNNY     54  45  71 SE9       29.53F
CHURCHILL      CLOUDY    41  37  87 SW13      29.62F
GILLAM         MOSUNNY   57  39  51 S17G29    29.68F
$$
                ***SASKATCHEWAN***

CITY           SKY/WX    TMP DP  RH WIND       PRES   REMARKS
ESTEVAN        MOSUNNY   70  43  37 E16       29.60F
KINDERSLEY     PTSUNNY   63  37  39 NW5       29.57
LLOYDMINSTER   CLOUDY    57  41  54 NW13      29.58S
PRINCE ALBERT  PTSUNNY   70  43  37 S3        29.52S
REGINA         MOSUNNY   72  46  40 SE15      29.56F
YORKTON        SUNNY     66  41  39 SE12G22   29.62F
N. BATTLEFORD  MOSUNNY   63  39  42 N13       29.56S
LA RONGE       PTSUNNY   61  45  55 N2        29.48
SASKATOON      PTSUNNY   70  39  32 SE7       29.53
SWIFT CURRENT  SUNNY     66  36  32 W14G20    29.55R
$$
NOTE: THESE ARE AUTOMATED STATIONS WITH LIMITED QUALITY CONTROL
      "FAIR" INDICATES FEW OR NO CLOUDS BELOW 12,000 FEET WITH NO
      SIGNIFICANT WEATHER AND/OR OBSTRUCTIONS TO VISIBILITY.
      SKY/WX - SKY CONDITION AND SIGNIFICANT WEATHER.
      TMP - AIR TEMPERATURE.    DP   - DEWPOINT TEMPERATURE.
      RH  - RELATIVE HUMIDITY.  PRES - PRESSURE.
      HX  - HEAT INDEX.         WCI  - WIND CHILL INDEX.
$



USA.gov is the U.S. government's official web portal to all federal, state and local government web resources and services.